Meteo pe oră la Bolshie Nivy

Astăzi, 18 Mai, Marţi

Timp Temperatura Precipitaţii Vânt Presiune Umiditate
00:00 +17°C° 0 mm 3 m/s 734 mmHg 95%
01:00 +17°C° 0 mm 3 m/s 734 mmHg 96%
02:00 +17°C° 0 mm 3 m/s 734 mmHg 96%
03:00 +17°C° 0 mm 3 m/s 734 mmHg 96%
04:00 +17°C° 0 mm 3 m/s 734 mmHg 95%
05:00 +17°C° 0 mm 3 m/s 734 mmHg 95%
06:00 +18°C° 0 mm 4 m/s 734 mmHg 91%
07:00 +19°C° 0 mm 4 m/s 734 mmHg 86%
08:00 +21°C° 0 mm 4 m/s 734 mmHg 82%
09:00 +23°C° 0 mm 5 m/s 734 mmHg 72%
10:00 +25°C° 0 mm 5 m/s 734 mmHg 62%
11:00 +27°C° 0 mm 6 m/s 734 mmHg 53%
12:00 +27°C° 0.1 mm 5 m/s 734 mmHg 51%
13:00 +28°C° 0.1 mm 5 m/s 734 mmHg 48%
14:00 +28°C° 0.1 mm 5 m/s 734 mmHg 46%
15:00 +28°C° 0 mm 5 m/s 734 mmHg 47%
16:00 +27°C° 0 mm 5 m/s 734 mmHg 48%
17:00 +26°C° 0 mm 5 m/s 733 mmHg 49%
18:00 +25°C° 0 mm 5 m/s 733 mmHg 55%
19:00 +22°C° 0 mm 4 m/s 733 mmHg 61%
20:00 +20°C° 0 mm 4 m/s 733 mmHg 67%
21:00 +20°C° 0 mm 4 m/s 733 mmHg 69%
22:00 +19°C° 0 mm 4 m/s 733 mmHg 72%
23:00 +19°C° 0 mm 4 m/s 733 mmHg 74%

Mâine, 19 Mai, Miercuri

Timp Temperatura Precipitaţii Vânt Presiune Umiditate
00:00 +18°C° 0 mm 4 m/s 733 mmHg 78%
01:00 +18°C° 0 mm 4 m/s 733 mmHg 82%
02:00 +17°C° 0 mm 4 m/s 733 mmHg 86%
03:00 +17°C° 0 mm 4 m/s 733 mmHg 87%
04:00 +17°C° 0 mm 3 m/s 733 mmHg 89%
05:00 +16°C° 0 mm 3 m/s 733 mmHg 90%
06:00 +17°C° 0 mm 3 m/s 733 mmHg 84%
07:00 +18°C° 0 mm 4 m/s 733 mmHg 78%
08:00 +19°C° 0 mm 4 m/s 733 mmHg 71%
09:00 +20°C° 0 mm 4 m/s 733 mmHg 67%
10:00 +21°C° 0 mm 5 m/s 734 mmHg 63%
11:00 +21°C° 0 mm 5 m/s 734 mmHg 59%
12:00 +21°C° 0.6 mm 5 m/s 734 mmHg 65%
13:00 +20°C° 0.6 mm 5 m/s 734 mmHg 70%
14:00 +19°C° 0.6 mm 4 m/s 734 mmHg 76%
15:00 +19°C° 0.4 mm 4 m/s 734 mmHg 76%
16:00 +19°C° 0.4 mm 4 m/s 734 mmHg 77%
17:00 +19°C° 0.4 mm 3 m/s 734 mmHg 78%
18:00 +18°C° 0.1 mm 3 m/s 734 mmHg 83%
19:00 +17°C° 0.1 mm 2 m/s 735 mmHg 89%
20:00 +16°C° 0.1 mm 1 m/s 735 mmHg 94%
21:00 +15°C° 0 mm 1 m/s 735 mmHg 95%
22:00 +15°C° 0 mm 1 m/s 735 mmHg 95%
23:00 +14°C° 0 mm 1 m/s 734 mmHg 95%

Poimâine, 20 Mai, Joi

Timp Temperatura Precipitaţii Vânt Presiune Umiditate
00:00 +14°C° 0 mm 1 m/s 734 mmHg 95%
01:00 +14°C° 0 mm 1 m/s 734 mmHg 96%
02:00 +14°C° 0 mm 1 m/s 734 mmHg 96%
03:00 +14°C° 0.2 mm 2 m/s 734 mmHg 96%
04:00 +14°C° 0.2 mm 2 m/s 733 mmHg 96%
05:00 +14°C° 0.2 mm 2 m/s 733 mmHg 96%
06:00 +15°C° 0.1 mm 2 m/s 733 mmHg 93%
07:00 +17°C° 0.1 mm 3 m/s 733 mmHg 91%
08:00 +18°C° 0.1 mm 3 m/s 732 mmHg 88%
09:00 +18°C° 0 mm 4 m/s 732 mmHg 84%
10:00 +19°C° 0 mm 4 m/s 732 mmHg 79%
11:00 +19°C° 0 mm 4 m/s 732 mmHg 75%
12:00 +19°C° 0.5 mm 5 m/s 732 mmHg 76%
13:00 +17°C° 0.5 mm 5 m/s 731 mmHg 77%
14:00 +17°C° 0.5 mm 5 m/s 731 mmHg 78%
15:00 +17°C° 0.3 mm 5 m/s 731 mmHg 77%
16:00 +16°C° 0.3 mm 5 m/s 731 mmHg 76%
17:00 +17°C° 0.3 mm 4 m/s 731 mmHg 74%
18:00 +15°C° 0 mm 4 m/s 731 mmHg 79%
19:00 +14°C° 0 mm 3 m/s 731 mmHg 84%
20:00 +13°C° 0 mm 2 m/s 731 mmHg 89%
21:00 +13°C° 0 mm 2 m/s 731 mmHg 92%
22:00 +12°C° 0 mm 2 m/s 731 mmHg 94%
23:00 +11°C° 0 mm 3 m/s 731 mmHg 96%

21 Mai, Vineri

Timp Temperatura Precipitaţii Vânt Presiune Umiditate
00:00 +10°C° 0 mm 3 m/s 731 mmHg 91%
01:00 +10°C° 0 mm 3 m/s 731 mmHg 86%
02:00 +10°C° 0 mm 3 m/s 731 mmHg 82%
03:00 +10°C° 0 mm 3 m/s 731 mmHg 82%
04:00 +9°C° 0 mm 3 m/s 731 mmHg 81%
05:00 +9°C° 0 mm 2 m/s 731 mmHg 81%
06:00 +9°C° 0.1 mm 2 m/s 731 mmHg 83%
07:00 +9°C° 0.1 mm 2 m/s 732 mmHg 85%
08:00 +10°C° 0.1 mm 1 m/s 732 mmHg 87%
09:00 +9°C° 0.2 mm 2 m/s 732 mmHg 89%
10:00 +9°C° 0.2 mm 3 m/s 733 mmHg 91%
11:00 +9°C° 0.2 mm 3 m/s 734 mmHg 93%
12:00 +8°C° 0.1 mm 4 m/s 735 mmHg 92%
13:00 +8°C° 0.1 mm 4 m/s 736 mmHg 90%
14:00 +8°C° 0.1 mm 5 m/s 737 mmHg 89%
15:00 +11°C° 0 mm 4 m/s 737 mmHg 76%
16:00 +13°C° 0 mm 4 m/s 737 mmHg 64%
17:00 +16°C° 0 mm 3 m/s 738 mmHg 52%
18:00 +13°C° 0 mm 3 m/s 738 mmHg 60%
19:00 +12°C° 0 mm 3 m/s 739 mmHg 68%
20:00 +10°C° 0 mm 2 m/s 739 mmHg 76%
21:00 +9°C° 0.1 mm 2 m/s 739 mmHg 79%
22:00 +9°C° 0.1 mm 2 m/s 740 mmHg 82%
23:00 +8°C° 0.1 mm 2 m/s 740 mmHg 85%

22 Mai, Sâmbătă

Timp Temperatura Precipitaţii Vânt Presiune Umiditate
00:00 +7°C° 0 mm 2 m/s 741 mmHg 87%
01:00 +6°C° 0 mm 2 m/s 741 mmHg 89%
02:00 +5°C° 0 mm 2 m/s 741 mmHg 91%
03:00 +6°C° 0 mm 2 m/s 742 mmHg 90%
04:00 +6°C° 0 mm 2 m/s 742 mmHg 88%
05:00 +6°C° 0 mm 2 m/s 742 mmHg 87%
06:00 +8°C° 0 mm 2 m/s 743 mmHg 75%
07:00 +10°C° 0 mm 2 m/s 743 mmHg 64%
08:00 +12°C° 0 mm 3 m/s 743 mmHg 53%
09:00 +13°C° 0 mm 3 m/s 743 mmHg 48%
10:00 +15°C° 0 mm 2 m/s 743 mmHg 43%
11:00 +17°C° 0 mm 2 m/s 743 mmHg 38%
12:00 +17°C° 0 mm 2 m/s 743 mmHg 37%
13:00 +18°C° 0 mm 2 m/s 743 mmHg 37%
14:00 +19°C° 0 mm 2 m/s 743 mmHg 36%
15:00 +19°C° 0 mm 2 m/s 742 mmHg 39%
16:00 +18°C° 0 mm 2 m/s 742 mmHg 42%
17:00 +18°C° 0 mm 2 m/s 742 mmHg 46%
18:00 +16°C° 0 mm 2 m/s 742 mmHg 54%
19:00 +14°C° 0 mm 2 m/s 742 mmHg 63%
20:00 +12°C° 0 mm 2 m/s 742 mmHg 71%
21:00 +10°C° 0 mm 2 m/s 742 mmHg 75%
22:00 +9°C° 0 mm 2 m/s 742 mmHg 78%
23:00 +8°C° 0 mm 2 m/s 742 mmHg 82%

23 Mai, Duminică

Timp Temperatura Precipitaţii Vânt Presiune Umiditate
00:00 +8°C° 0 mm 2 m/s 742 mmHg 83%
01:00 +7°C° 0 mm 2 m/s 742 mmHg 85%
02:00 +7°C° 0 mm 2 m/s 742 mmHg 87%
03:00 +8°C° 0 mm 2 m/s 741 mmHg 85%
04:00 +9°C° 0 mm 1 m/s 741 mmHg 84%
05:00 +10°C° 0 mm 1 m/s 741 mmHg 82%
06:00 +12°C° 0 mm 2 m/s 740 mmHg 76%
07:00 +14°C° 0 mm 2 m/s 740 mmHg 70%
08:00 +16°C° 0 mm 3 m/s 740 mmHg 64%
09:00 +16°C° 0 mm 3 m/s 739 mmHg 63%
10:00 +17°C° 0 mm 3 m/s 739 mmHg 61%
11:00 +17°C° 0 mm 3 m/s 738 mmHg 60%
12:00 +17°C° 0 mm 3 m/s 738 mmHg 62%
13:00 +17°C° 0 mm 3 m/s 737 mmHg 64%
14:00 +16°C° 0 mm 3 m/s 737 mmHg 65%
15:00 +16°C° 0 mm 3 m/s 736 mmHg 69%
16:00 +16°C° 0 mm 3 m/s 735 mmHg 72%
17:00 +16°C° 0 mm 3 m/s 735 mmHg 75%
18:00 +14°C° 1.3 mm 3 m/s 735 mmHg 81%
19:00 +13°C° 1.3 mm 3 m/s 734 mmHg 88%
20:00 +11°C° 1.3 mm 4 m/s 734 mmHg 95%
21:00 +11°C° 0.4 mm 4 m/s 734 mmHg 94%
22:00 +9°C° 0.4 mm 5 m/s 735 mmHg 93%
23:00 +9°C° 0.4 mm 6 m/s 736 mmHg 91%
Arată mai mult

Formular de consimțământ

Meteoprog și furnizorii noștri de servicii pot stoca și accesa date personale, precum cookies, identificatori de dispozitiv sau alte tehnologii similare pe dispozitivul dumneavoastră și procesa astfel de date pentru a personaliza conținutul și reclamele, dar și pentru a oferi caracteristici de social media și pentru a analiza traficul.

  • Stocarea și/sau accesarea informațiilor pe dispozitivul dumneavoastră

    Cookies, identificatori de dispozitiv sau alte informații pot fi stocate sau accesate pe dispozitiv în scopurile indicate mai sus.

  • Reclame și conținut personalizat, evaluarea reclamelor și a conținutului, informații despre audiențe și dezvoltarea produselor

    Reclamele și conținutul pot fi personalizate pe baza unui profil. Pot fi adăugate date suplimentare pentru a personaliza mai bine reclamele și conținutul. Performanța reclamelor și conținutului poate fi măsurată. Pot fi obținute informații despre utilizatorii care au văzut reclamele și conținutul. Aceste date pot fi utilizate pentru a dezvolta sau îmbunătăți experiența utilizatorilor, sistemele și software-ul.

Dând clic pe ‘Sunt de acord’, permiteți utilizarea cookie-urilor menționate, a identificatorilor de dispozitiv, balizelor web sau altor tehnologii similare. Setările pot fi modificate din browser-ul dispozitivului dumneavoastră.

În anumite scopuri, interesele legitime pot prima asupra consimțământului. Puteți citi mai multe informații în acest sens în Politica privind Confidențialitatea Datelor și Cookie.